Weather History for Mammoth, CA

Change the Weather History Date:

Sunday, October 20, 2013

  Actual Average Record
Temperature  
Mean Temperature 45 °F -  
Max Temperature 69 °F 55 °F 75 °F (2003)
Min Temperature 21 °F 36 °F 21 °F (2008)
Degree Days  
Heating Degree Days 20    
Moisture  
Dew Point 10 °F    
Average Humidity 28    
Maximum Humidity 59    
Minimum Humidity 8    
Precipitation  
Precipitation 0.00 in - - ()
Sea Level Pressure  
Sea Level Pressure 30.24 in    
Wind  
Wind Speed 4 mph (NW)    
Max Wind Speed 14 mph    
Max Gust Speed 17 mph    
Visibility 10 miles    
Events      
Averages and records for this station are not official NWS values.
T = Trace of Precipitation, MM = Missing Value Source: NWS Daily Summary

Daily Weather History Graph

Daily Weather History Graph

Search for Another Location

Airport:

Trip Planner

Search our weather history database for the weather conditions in past years. The results will help you decide how hot, cold, wet, or windy it might be!

Date:

Astronomy

Oct. 20, 2013 Rise Set
Actual Time 7:08 AM PDT 6:10 PM PDT
Civil Twilight 6:42 AM PDT 6:37 PM PDT
Nautical Twilight 6:11 AM PDT 7:07 PM PDT
Astronomical Twilight 5:41 AM PDT 7:38 PM PDT
Moon 7:25 PM PDT 8:49 AM PDT
Length of Visible Light 11h 55m
Length of Day
11h 02m
Waning Gibbous, 97% of the Moon is Illuminated
Oct 20
Waning Gibbous
Oct 26
Last Quarter
Nov 3
New
Nov 9
First Quarter
Nov 17
Full

Hourly Weather History & Observations

Time (PDT) Temp. Windchill Dew Point Humidity Pressure Visibility Wind Dir Wind Speed Gust Speed Precip Events Conditions
12:15 AM 37.4 °F 31.4 °F 10.4 °F 33% 30.31 in 10.0 mi West 8.1 mph - N/A   Clear
12:35 AM 35.6 °F 32.8 °F 10.4 °F 35% 30.31 in 10.0 mi NNW 3.5 mph - N/A   Clear
12:55 AM 35.6 °F 32.8 °F 10.4 °F 35% 30.30 in 10.0 mi North 3.5 mph - N/A   Clear
1:15 AM 33.8 °F - 10.4 °F 38% 30.30 in 10.0 mi Calm Calm - N/A   Clear
1:35 AM 33.8 °F 29.6 °F 10.4 °F 38% 30.30 in 10.0 mi North 4.6 mph - N/A   Clear
1:55 AM 33.8 °F 30.8 °F 10.4 °F 38% 30.30 in 10.0 mi North 3.5 mph - N/A   Clear
2:15 AM 33.8 °F 30.8 °F 10.4 °F 38% 30.30 in 10.0 mi NNW 3.5 mph - N/A   Clear
2:35 AM 32.0 °F - 10.4 °F 41% 30.30 in 10.0 mi Calm Calm - N/A   Clear
2:55 AM 32.0 °F 28.7 °F 10.4 °F 41% 30.29 in 10.0 mi NNW 3.5 mph - N/A   Clear
3:15 AM 30.2 °F 25.4 °F 12.2 °F 47% 30.28 in 10.0 mi NNW 4.6 mph - N/A   Clear
3:35 AM 28.4 °F - 12.2 °F 51% 30.28 in 10.0 mi Calm Calm - N/A   Clear
3:55 AM 30.2 °F 25.4 °F 10.4 °F 44% 30.28 in 10.0 mi North 4.6 mph - N/A   Clear
4:15 AM 28.4 °F - 12.2 °F 51% 30.27 in 10.0 mi Calm Calm - N/A   Clear
4:35 AM 26.6 °F 22.6 °F 8.6 °F 47% 30.27 in 10.0 mi North 3.5 mph - N/A   Clear
4:55 AM 24.8 °F 19.1 °F 8.6 °F 50% 30.27 in 10.0 mi North 4.6 mph - N/A   Clear
5:15 AM 24.8 °F - 10.4 °F 54% 30.27 in 10.0 mi Calm Calm - N/A   Clear
5:35 AM 24.8 °F 20.5 °F 10.4 °F 54% 30.27 in 10.0 mi North 3.5 mph - N/A   Clear
5:55 AM 26.6 °F 21.2 °F 12.2 °F 55% 30.27 in 10.0 mi NNW 4.6 mph - N/A   Clear
6:15 AM 26.6 °F 21.2 °F 10.4 °F 51% 30.26 in 10.0 mi North 4.6 mph - N/A   Clear
6:35 AM 26.6 °F - 12.2 °F 55% 30.27 in 10.0 mi Calm Calm - N/A   Clear
6:55 AM 26.6 °F - 12.2 °F 55% 30.27 in 10.0 mi Calm Calm - N/A   Clear
7:15 AM 24.8 °F 19.1 °F 12.2 °F 59% 30.27 in 10.0 mi NNW 4.6 mph - N/A   Clear
7:35 AM 21.2 °F 12.6 °F 8.6 °F 58% 30.28 in 10.0 mi North 6.9 mph - N/A   Clear
7:55 AM 26.6 °F - 10.4 °F 51% 30.28 in 10.0 mi Calm Calm - N/A   Clear
8:15 AM 30.2 °F - 12.2 °F 47% 30.28 in 10.0 mi Calm Calm - N/A   Clear
8:35 AM 37.4 °F - 14.0 °F 38% 30.29 in 10.0 mi Calm Calm - N/A   Clear
8:55 AM 39.2 °F - 14.0 °F 36% 30.28 in 10.0 mi Calm Calm - N/A   Clear
9:15 AM 42.8 °F - 14.0 °F 31% 30.28 in 10.0 mi Calm Calm - N/A   Clear
9:35 AM 46.4 °F - 14.0 °F 27% 30.28 in 10.0 mi Calm Calm - N/A   Clear
9:55 AM 50.0 °F - 14.0 °F 24% 30.27 in 10.0 mi Calm Calm - N/A   Clear
10:15 AM 53.6 °F - 15.8 °F 22% 30.27 in 10.0 mi SE 4.6 mph - N/A   Clear
10:35 AM 55.4 °F - 15.8 °F 21% 30.26 in 10.0 mi SE 5.8 mph - N/A   Clear
10:55 AM 59.0 °F - 15.8 °F 19% 30.26 in 10.0 mi SE 4.6 mph - N/A   Clear
11:15 AM 60.8 °F - 12.2 °F 15% 30.25 in 10.0 mi Calm Calm - N/A   Clear
11:35 AM 62.6 °F - 10.4 °F 13% 30.24 in 10.0 mi Calm Calm - N/A   Clear
11:55 AM 64.4 °F - 6.8 °F 10% 30.24 in 10.0 mi Calm Calm - N/A   Clear
12:15 PM 64.4 °F - 6.8 °F 10% 30.23 in 10.0 mi Calm Calm - N/A   Clear
12:35 PM 66.2 °F - 8.6 °F 11% 30.22 in 10.0 mi NE 5.8 mph - N/A   Clear
12:55 PM 68.0 °F - 8.6 °F 10% 30.22 in 10.0 mi SSE 3.5 mph - N/A   Clear
1:15 PM 68.0 °F - 8.6 °F 10% 30.21 in 10.0 mi Calm Calm - N/A   Clear
1:35 PM 68.0 °F - 8.6 °F 10% 30.20 in 10.0 mi Calm Calm - N/A   Clear
1:55 PM 68.0 °F - 6.8 °F 9% 30.19 in 10.0 mi SE 5.8 mph - N/A   Clear
2:15 PM 68.0 °F - 8.6 °F 10% 30.18 in 10.0 mi SE 6.9 mph - N/A   Clear
2:35 PM 68.0 °F - 6.8 °F 9% 30.17 in 10.0 mi South 8.1 mph - N/A   Clear
2:55 PM 68.0 °F - 6.8 °F 9% 30.17 in 10.0 mi ESE 6.9 mph - N/A   Clear
3:15 PM 69.8 °F - 5.0 °F 8% 30.17 in 10.0 mi East 6.9 mph - N/A   Clear
3:35 PM 68.0 °F - 6.8 °F 9% 30.17 in 10.0 mi Calm Calm - N/A   Clear
3:55 PM 68.0 °F - 6.8 °F 9% 30.16 in 10.0 mi SSE 5.8 mph - N/A   Clear
4:15 PM 68.0 °F - 6.8 °F 9% 30.16 in 10.0 mi South 3.5 mph - N/A   Clear
4:35 PM 68.0 °F - 8.6 °F 10% 30.16 in 10.0 mi West 6.9 mph - N/A   Clear
4:55 PM 68.0 °F - 6.8 °F 9% 30.16 in 10.0 mi NNW 12.7 mph 17.3 mph N/A   Clear
5:15 PM 66.2 °F - 5.0 °F 9% 30.16 in 10.0 mi NNW 9.2 mph - N/A   Clear
5:35 PM 64.4 °F - 5.0 °F 10% 30.16 in 10.0 mi NNW 9.2 mph - N/A   Clear
5:55 PM 60.8 °F - 6.8 °F 12% 30.17 in 10.0 mi NW 8.1 mph - N/A   Clear
6:15 PM 55.4 °F - 5.0 °F 13% 30.17 in 10.0 mi Calm Calm - N/A   Clear
6:35 PM 57.2 °F - 6.8 °F 13% 30.18 in 10.0 mi Calm Calm - N/A   Clear
6:55 PM 51.8 °F - 6.8 °F 16% 30.19 in 10.0 mi West 3.5 mph - N/A   Clear
7:15 PM 48.2 °F - 6.8 °F 19% 30.20 in 10.0 mi West 5.8 mph - N/A   Clear
7:35 PM 46.4 °F 41.9 °F 8.6 °F 22% 30.20 in 10.0 mi West 9.2 mph - N/A   Clear
7:55 PM 46.4 °F 41.5 °F 8.6 °F 22% 30.21 in 10.0 mi West 10.4 mph - N/A   Clear
8:15 PM 46.4 °F 42.9 °F 10.4 °F 23% 30.22 in 10.0 mi West 6.9 mph - N/A   Clear
8:35 PM 46.4 °F 42.4 °F 10.4 °F 23% 30.22 in 10.0 mi West 8.1 mph - N/A   Clear
8:55 PM 46.4 °F 40.7 °F 12.2 °F 25% 30.23 in 10.0 mi West 12.7 mph - N/A   Clear
9:15 PM 44.6 °F 39.7 °F 10.4 °F 25% 30.23 in 10.0 mi West 9.2 mph - N/A   Clear
9:35 PM 42.8 °F 37.0 °F 10.4 °F 27% 30.23 in 10.0 mi WNW 10.4 mph - N/A   Clear
9:55 PM 44.6 °F 40.7 °F 10.4 °F 25% 30.24 in 10.0 mi WNW 6.9 mph - N/A   Clear
10:15 PM 44.6 °F 39.2 °F 12.2 °F 27% 30.25 in 10.0 mi WNW 10.4 mph - N/A   Clear
10:35 PM 44.6 °F 38.1 °F 12.2 °F 27% 30.25 in 10.0 mi West 13.8 mph - N/A   Clear
10:55 PM 41.0 °F 33.9 °F 10.4 °F 29% 30.25 in 10.0 mi West 12.7 mph - N/A   Clear
11:15 PM 39.2 °F 32.0 °F 10.4 °F 31% 30.25 in 10.0 mi West 11.5 mph - N/A   Clear
11:35 PM 39.2 °F 33.0 °F 10.4 °F 31% 30.25 in 10.0 mi West 9.2 mph - N/A   Clear
11:55 PM 41.0 °F 35.8 °F 12.2 °F 31% 30.25 in 10.0 mi West 8.1 mph - N/A   Clear